Date,TemperatureHighF,TemperatureAvgF,TemperatureLowF,DewpointHighF,DewpointAvgF,DewpointLowF,HumidityHigh,HumidityAvg,HumidityLow,PressureMaxIn,PressureMinIn,WindSpeedMaxMPH,WindSpeedAvgMPH,GustSpeedMaxMPH,PrecipitationSumIn
2013-1-1,58.0,48.1,39.9,44.2,35.7,23.1,88,65,31,30.23,30.08,1,0,7,0.00
2013-1-2,62.6,51.8,40.6,46.2,30.0,17.1,75,46,18,30.12,30.02,6,1,9,0.00
2013-1-3,62.9,44.4,37.0,44.5,34.1,30.1,78,68,40,30.17,30.03,2,0,2,0.00
2013-1-4,63.2,49.0,36.6,37.2,29.1,22.5,75,49,22,30.26,30.15,5,0,8,0.00
2013-1-5,58.9,47.3,36.0,48.1,36.8,26.1,82,67,46,30.28,30.17,6,1,11,0.00
2013-1-6,55.4,49.2,42.7,49.5,44.8,37.5,97,85,68,30.19,30.01,6,1,14,0.29
2013-1-7,62.2,50.8,42.3,45.2,40.6,33.5,96,71,34,30.08,29.95,9,1,17,0.01
2013-1-8,63.2,50.9,40.5,50.1,43.3,35.4,92,76,54,30.10,30.00,1,0,1,0.00
2013-1-9,61.9,52.5,43.3,53.4,47.5,39.7,92,84,58,30.12,30.00,1,0,1,0.01
2013-1-10,55.0,52.1,47.2,50.3,40.9,25.0,93,67,40,30.08,29.92,14,6,25,0.01
2013-1-11,52.7,45.8,33.1,34.3,29.1,20.6,82,54,33,30.18,30.05,10,2,13,0.00
2013-1-12,52.3,43.8,33.6,35.6,29.1,22.2,73,57,33,30.15,30.05,5,0,14,0.00
2013-1-13,53.4,44.2,34.1,38.1,28.8,20.7,80,57,28,30.15,30.05,5,1,8,0.00
2013-1-14,55.3,46.2,37.7,28.0,11.8,-8.1,65,27,7,30.32,30.11,8,2,13,0.00
2013-1-15,56.6,45.3,32.8,35.2,24.9,13.4,64,45,26,30.44,30.31,7,1,14,0.00
2013-1-16,63.1,49.0,37.6,47.8,35.5,28.0,75,61,34,30.34,30.10,6,1,8,0.00
2013-1-17,71.9,56.5,44.1,38.8,30.8,20.7,72,42,15,30.15,30.02,5,0,8,0.00
2013-1-18,73.5,57.7,44.7,47.5,32.3,23.8,75,41,16,30.11,30.03,4,0,7,0.00
2013-1-19,71.8,57.6,46.7,36.3,30.1,22.3,59,37,18,30.16,30.05,5,0,8,0.00
2013-1-20,71.5,56.8,44.4,37.4,29.4,21.1,54,37,16,30.12,29.98,4,0,6,0.00
2013-1-21,73.5,56.5,44.7,46.4,29.8,19.7,55,38,16,30.07,29.98,4,0,6,0.00
2013-1-22,47.5,45.4,43.1,28.9,27.2,25.2,55,49,44,30.05,30.03,0,0,0,0.00
2013-1-24,68.8,62.9,59.6,55.6,53.6,51.8,84,72,56,30.13,30.07,5,0,6,0.23
2013-1-25,64.6,59.9,58.1,59.9,57.7,55.3,97,92,82,30.09,29.93,4,0,5,0.29
2013-1-26,60.8,58.0,54.6,59.7,57.1,54.0,98,97,93,30.00,29.88,2,0,5,0.02
2013-1-27,57.5,53.7,48.6,54.0,49.5,44.9,98,86,70,30.04,29.97,7,1,12,0.03
2013-1-28,57.3,49.3,41.4,46.2,40.2,34.5,93,72,43,30.17,30.00,9,2,16,0.00
2013-1-29,42.1,41.0,39.8,37.4,36.1,35.1,85,82,78,30.18,30.17,0,0,0,0.00
2013-2-3,65.0,57.9,50.0,54.1,47.6,45.5,85,69,52,30.04,30.00,3,0,7,0.00
2013-2-4,57.6,50.8,44.3,52.2,48.2,41.8,97,91,80,30.09,29.97,5,1,8,0.00
2013-2-5,54.6,51.6,47.8,51.1,49.2,47.0,98,92,84,30.11,29.98,2,0,5,0.01
2013-2-6,59.4,53.9,46.4,50.6,48.3,44.2,93,81,71,30.10,29.99,6,1,10,0.00
2013-2-7,57.2,50.9,42.0,51.7,46.5,40.4,95,85,73,30.12,30.00,5,1,8,0.00
2013-2-8,53.3,51.3,50.1,48.0,43.4,39.7,88,75,66,30.00,29.98,9,5,13,0.02
2013-2-9,55.6,50.6,44.2,44.9,41.7,35.6,85,72,47,30.10,30.03,2,0,13,0.02
2013-2-10,56.2,48.4,39.5,45.5,41.2,35.7,87,76,62,30.10,30.01,4,0,6,0.00
2013-2-11,57.1,48.9,38.2,48.2,42.9,36.0,92,80,59,30.23,30.05,7,1,14,0.00
2013-2-12,56.6,47.9,36.2,48.9,39.7,30.8,86,74,54,30.33,30.23,7,1,11,0.00
2013-2-13,58.8,48.8,37.4,50.8,42.4,33.1,92,79,55,30.25,30.13,4,1,10,0.00
2013-2-14,63.5,51.2,39.6,53.7,45.7,36.8,91,82,57,30.21,30.04,5,1,6,0.00
2013-2-15,74.3,62.4,47.0,45.4,33.8,18.1,89,40,16,30.16,30.09,5,1,8,0.00
2013-2-16,76.1,66.3,50.0,41.1,22.3,12.4,54,21,11,30.12,29.96,6,1,13,0.00
2013-2-17,59.5,52.2,42.5,51.6,43.3,29.6,86,72,52,30.02,29.92,5,1,8,0.00
2013-2-18,57.8,52.2,50.3,47.3,45.7,42.8,84,78,68,30.05,29.95,2,0,4,0.00
2013-2-19,53.6,50.7,46.1,49.5,43.8,40.4,92,78,66,29.99,29.71,8,2,11,0.34
2013-2-20,55.0,49.9,43.1,42.6,38.0,30.3,78,64,47,30.00,29.70,15,5,24,0.00
2013-2-21,57.3,50.7,44.7,46.6,42.7,38.9,86,74,56,30.08,29.96,6,1,11,0.00
2013-2-22,58.6,49.2,37.1,49.3,42.6,34.2,90,79,63,30.19,30.08,5,0,7,0.00
2013-2-23,58.6,49.8,38.5,50.1,43.1,34.1,89,78,53,30.16,29.93,4,1,8,0.00
2013-2-24,68.2,53.2,42.1,48.3,34.7,3.4,95,61,8,30.19,29.97,8,1,11,0.00
2013-2-25,62.5,50.2,36.8,50.2,36.0,20.8,83,60,20,30.20,30.07,6,1,12,0.00
2013-2-26,59.0,50.0,36.3,50.7,42.1,31.0,86,75,57,30.10,29.98,6,1,8,0.00
2013-2-27,67.1,57.3,45.0,43.9,30.2,16.3,81,38,19,30.25,30.10,6,1,9,0.00
2013-2-28,71.4,58.7,43.1,41.4,27.6,13.0,59,34,12,30.28,30.21,5,1,13,0.00
2013-3-1,78.7,68.7,47.2,39.1,28.4,19.0,54,25,11,30.24,30.12,6,1,12,0.00
2013-3-2,77.0,62.9,49.5,48.6,35.3,25.0,76,40,15,30.18,30.05,5,0,7,0.00
2013-3-3,66.8,56.6,48.4,54.5,47.7,33.8,92,73,40,30.09,29.97,6,0,6,0.00
2013-3-4,60.9,55.9,52.1,52.4,50.5,48.0,90,82,69,30.09,30.01,5,1,8,0.00
2013-3-5,57.4,54.4,52.2,52.1,50.2,48.2,90,86,80,30.12,30.04,2,0,7,0.00
2013-3-6,57.3,54.3,50.5,49.8,46.4,43.4,88,75,60,30.15,30.00,6,1,8,0.00
2013-3-7,57.0,53.2,50.7,51.5,49.2,44.6,95,86,73,30.01,29.85,3,0,6,0.10
2013-3-8,54.8,51.3,47.2,48.8,45.3,40.8,94,81,61,30.03,29.77,12,2,16,0.47
2013-3-9,58.2,53.5,46.8,47.4,45.6,42.8,88,75,63,30.21,30.03,11,2,15,0.01
2013-3-10,66.6,53.9,41.6,52.0,43.0,33.4,92,70,32,30.25,30.13,8,2,13,0.00
2013-3-11,63.0,53.5,41.9,54.9,46.0,36.3,94,76,53,30.17,30.03,6,1,9,0.00
2013-3-12,62.1,52.5,44.1,55.2,50.1,43.0,97,92,76,30.08,29.99,5,1,9,0.01
2013-3-13,57.0,52.0,46.5,54.4,50.8,45.7,100,95,89,30.10,30.01,5,1,10,0.01
2013-3-14,55.0,51.4,48.6,53.5,50.6,48.1,98,97,94,30.08,30.01,1,0,5,0.01
2013-3-15,62.4,53.3,50.8,56.4,51.8,49.9,98,95,78,30.03,29.94,4,0,7,0.00
2013-3-16,58.5,53.5,50.0,52.6,50.8,49.2,98,91,79,29.97,29.89,5,1,7,0.00
2013-3-17,60.1,55.8,53.1,53.2,51.6,50.1,93,86,78,29.99,29.92,5,1,10,0.00
2013-3-18,60.2,56.2,52.9,52.4,51.0,49.5,92,83,72,30.08,29.97,4,1,6,0.00
2013-3-19,60.5,55.7,50.2,54.0,51.7,47.9,94,86,77,30.11,30.03,6,1,8,0.00
2013-3-20,63.2,56.1,50.1,55.7,52.7,48.7,96,89,68,30.08,29.97,7,1,13,0.00
2013-3-21,55.3,54.0,51.9,53.6,51.9,49.6,94,92,91,29.96,29.88,2,0,4,0.00
2013-3-22,60.9,57.0,52.9,54.3,52.9,50.2,92,86,76,29.91,29.83,6,1,8,0.00
2013-3-23,62.1,55.8,48.6,54.2,51.2,46.3,93,85,74,30.01,29.89,4,1,9,0.01
2013-3-24,62.8,56.6,50.7,55.7,52.9,48.1,95,88,75,30.00,29.88,6,2,12,0.00
2013-3-25,63.7,56.8,50.9,57.0,53.7,48.9,96,89,75,29.97,29.88,3,0,8,0.00
2013-3-26,61.9,56.5,52.4,54.6,52.9,50.4,94,88,76,29.97,29.90,4,0,7,0.00
2013-3-27,60.8,56.7,53.9,53.6,52.0,50.3,91,84,76,30.03,29.92,6,1,9,0.00
2013-3-28,62.2,57.4,53.3,56.7,53.5,50.4,95,87,79,30.06,29.99,7,2,13,0.00
2013-3-29,59.8,56.5,55.1,55.3,54.2,53.1,95,92,84,30.10,30.03,6,1,13,0.00
2013-3-30,60.9,56.9,53.5,56.0,54.1,51.5,96,91,83,30.12,30.05,7,2,12,0.00
2013-3-31,64.3,57.6,52.1,57.6,54.1,50.4,95,88,77,30.12,30.05,6,2,11,0.00
2013-4-1,62.2,57.5,54.7,55.3,52.7,49.6,92,84,71,30.16,30.07,10,2,17,0.00
2013-4-2,61.5,57.4,53.8,54.9,53.2,51.5,93,86,74,30.09,29.98,6,1,10,0.00
2013-4-3,61.9,56.7,52.4,56.7,53.7,50.4,95,90,81,30.08,29.99,9,1,11,0.00
2013-4-4,63.1,58.3,55.5,57.5,54.8,52.9,95,88,80,30.10,30.00,8,2,13,0.00
2013-4-5,63.2,58.4,56.1,56.9,55.2,53.8,96,89,78,30.09,29.99,5,1,7,0.01
2013-4-6,63.1,59.0,55.8,56.8,55.1,53.2,93,87,74,30.07,29.95,6,1,11,0.00
2013-4-7,63.3,57.3,49.7,56.3,53.0,47.5,95,86,74,29.96,29.80,4,1,7,0.01
2013-4-8,60.2,57.2,53.0,54.9,50.4,45.8,92,78,67,29.81,29.68,13,6,23,0.00
2013-4-9,65.4,55.9,45.1,51.9,44.7,34.0,89,68,31,30.00,29.81,11,2,15,0.00
2013-4-10,69.4,57.9,46.5,55.6,46.6,38.2,84,67,41,30.08,29.98,6,1,8,0.00
2013-4-11,63.1,56.4,47.6,55.8,48.7,38.1,86,76,55,30.00,29.79,10,2,15,0.00
2013-4-12,61.8,57.8,55.5,54.6,52.5,50.4,92,83,75,29.88,29.77,7,2,17,0.00
2013-4-13,57.6,56.3,54.5,55.0,53.1,49.8,95,89,84,29.91,29.83,5,1,6,0.00
2013-4-14,58.9,55.3,52.4,54.0,51.4,49.5,95,87,81,29.88,29.82,6,1,10,0.01
2013-4-15,60.4,56.3,53.5,54.5,51.6,47.8,93,84,78,29.91,29.83,6,1,9,0.02
2013-4-16,59.6,54.7,50.3,49.0,46.4,43.8,83,74,59,29.98,29.86,6,2,10,0.00
2013-4-17,64.7,55.9,41.2,48.0,36.3,21.7,85,52,21,30.10,29.98,13,3,19,0.00
2013-4-18,71.0,62.7,47.0,40.7,26.4,11.4,56,27,10,30.17,30.08,13,3,19,0.00
2013-4-19,75.2,62.1,45.9,52.5,33.1,20.8,85,38,13,30.13,29.95,7,2,16,0.00
2013-4-20,70.5,60.5,48.1,57.4,50.8,42.9,93,72,40,29.99,29.86,4,1,11,0.00
2013-4-21,66.1,58.9,53.2,58.0,55.1,51.8,97,87,73,30.00,29.92,6,1,8,0.00
2013-4-22,62.3,57.8,55.2,54.6,53.0,51.3,90,84,76,29.99,29.90,5,1,8,0.00
2013-4-23,63.0,58.8,56.1,54.0,52.4,50.8,86,79,69,29.97,29.85,4,1,12,0.00
2013-4-24,59.8,57.8,55.8,54.9,53.4,50.5,95,85,73,29.96,29.89,2,0,7,0.01
2013-4-25,65.7,60.3,56.0,55.6,53.5,51.1,91,79,63,30.10,29.95,6,1,15,0.00
2013-4-26,66.7,59.3,49.7,57.8,53.4,47.2,91,81,68,30.14,30.08,7,2,13,0.00
2013-4-27,63.1,58.4,52.7,58.1,55.3,50.4,97,89,82,30.14,29.98,8,1,12,0.00
2013-4-28,61.4,58.2,56.8,57.3,55.7,54.9,96,91,84,30.01,29.86,5,1,8,0.00
2013-4-29,63.8,58.6,56.3,57.3,55.3,53.8,96,89,78,29.90,29.78,3,0,7,0.00
2013-4-30,63.0,59.1,57.2,56.4,54.4,53.0,91,84,77,29.89,29.82,5,2,11,0.00
2013-5-1,64.8,60.7,57.5,57.7,56.4,55.2,94,86,75,30.08,29.88,7,1,11,0.01
2013-5-2,76.4,63.1,55.1,60.9,57.1,52.9,94,82,53,30.09,29.95,9,2,14,0.00
2013-5-3,83.9,67.1,52.8,61.1,49.4,20.8,92,61,10,29.99,29.77,4,1,11,0.01
2013-5-4,64.7,60.8,57.8,58.5,55.5,52.3,93,83,74,29.84,29.75,10,4,15,0.00
2013-5-5,63.5,59.7,58.0,55.8,54.3,52.9,89,82,72,29.93,29.82,7,2,14,0.00
2013-5-6,64.0,60.2,57.0,58.8,56.6,53.8,96,88,71,30.00,29.89,8,2,12,0.24
2013-5-7,66.8,61.4,57.0,57.1,54.7,49.6,93,80,56,30.06,29.96,5,1,11,0.00
2013-5-8,65.4,60.8,55.8,57.0,55.1,52.8,91,82,71,30.08,30.04,6,2,12,0.00
2013-5-9,64.9,60.1,52.9,57.2,54.8,50.3,92,83,73,30.08,30.02,4,1,8,0.00
2013-5-10,67.5,61.9,56.0,60.4,57.2,53.3,93,85,77,30.07,29.99,8,2,11,0.00
2013-5-11,68.2,62.4,58.4,62.5,59.4,56.4,96,90,82,30.06,29.96,7,1,12,0.00
2013-5-12,77.6,65.5,59.4,64.9,61.2,58.5,98,87,58,30.03,29.88,6,1,11,0.00
2013-5-13,84.3,70.8,60.3,64.0,59.5,52.9,93,70,36,29.95,29.84,7,1,7,0.00
2013-5-14,67.1,62.6,58.2,59.9,57.4,54.9,91,83,74,29.99,29.88,7,2,14,0.00
2013-5-15,65.3,61.3,59.2,57.5,55.6,54.0,88,82,74,30.02,29.94,6,2,12,0.00
2013-5-16,66.0,62.2,59.6,58.6,56.3,53.9,87,81,73,29.96,29.89,5,1,10,0.00
2013-5-17,61.2,60.6,60.1,57.3,56.7,55.2,89,87,82,29.92,29.89,1,0,6,0.00
2013-5-18,67.6,63.4,59.0,59.4,57.3,55.1,89,81,69,30.02,29.95,5,1,10,0.00
2013-5-19,66.3,62.6,58.6,58.7,57.2,54.6,92,83,73,29.97,29.87,4,1,8,0.00
2013-5-20,68.5,63.1,57.7,61.4,58.6,54.8,91,85,77,29.93,29.87,5,1,11,0.00
2013-5-21,67.7,63.3,60.7,61.3,59.2,57.5,92,87,77,29.92,29.83,3,1,10,0.00
2013-5-22,66.5,63.0,61.1,57.9,56.7,54.9,85,80,71,29.84,29.77,5,1,12,0.00
2013-5-23,65.6,61.5,58.4,56.7,54.8,53.0,85,79,70,29.92,29.81,8,2,12,0.00
2013-5-24,64.1,60.8,56.3,55.6,53.8,51.6,85,78,70,29.98,29.90,5,1,12,0.00
2013-5-25,65.1,59.9,51.6,57.0,53.5,48.1,88,80,67,30.02,29.96,4,1,11,0.00
2013-5-26,65.5,61.0,57.3,56.6,54.7,52.8,87,80,72,30.04,29.97,5,1,10,0.00
2013-5-27,66.7,61.2,54.8,59.2,56.0,51.9,91,83,74,29.99,29.86,5,1,9,0.00
2013-5-28,67.9,63.9,60.6,60.3,57.9,55.4,89,81,73,29.88,29.74,5,1,11,0.00
2013-5-29,70.4,64.6,60.7,62.5,59.5,57.1,90,84,75,29.80,29.71,4,1,7,0.00
2013-5-30,68.8,63.6,58.0,60.8,58.9,55.4,92,85,74,29.87,29.74,5,1,13,0.00
2013-5-31,67.6,64.1,61.1,61.1,59.0,57.1,89,84,76,29.89,29.80,5,1,8,0.00
2013-6-1,68.0,64.2,61.6,62.3,60.2,58.8,91,87,81,29.84,29.76,6,1,11,0.00
2013-6-2,64.8,62.3,61.4,60.2,59.0,57.2,94,89,82,29.83,29.75,4,1,11,0.00
2013-6-3,67.4,62.7,60.8,59.2,57.8,56.5,90,84,74,29.88,29.78,6,1,12,0.00
2013-6-4,67.7,63.2,60.7,60.3,57.5,56.4,88,82,72,29.95,29.87,5,1,10,0.00
2013-6-5,67.4,63.3,59.3,59.4,57.8,56.3,90,83,73,29.98,29.89,10,2,15,0.00
2013-6-6,66.0,61.5,57.7,59.8,57.7,55.1,92,87,79,29.94,29.86,6,2,11,0.00
2013-6-7,65.5,61.3,59.0,59.9,57.7,56.5,92,88,81,29.90,29.78,5,1,7,0.00
2013-6-8,64.1,60.9,59.0,59.0,57.7,56.8,93,90,81,29.86,29.78,4,1,8,0.00
2013-6-9,64.8,61.3,59.0,59.5,57.6,55.8,93,88,81,29.92,29.86,3,0,6,0.00
2013-6-10,60.0,2.5,59.9,56.1,-93.4,-99.9,87,4,86,29.94,29.88,0,-957,0,0.00
2013-6-11,68.5,28.7,63.7,63.4,-30.3,-99.9,89,36,81,29.92,29.87,8,-567,16,0.00
2013-6-12,66.2,23.2,63.3,61.3,-42.8,-99.9,86,30,82,30.01,29.91,4,-642,7,0.00
2013-6-13,66.9,24.7,63.6,60.3,-40.1,-99.9,85,30,78,30.00,29.88,5,-623,14,0.00
2013-6-14,66.5,22.8,60.7,59.1,-44.1,-99.9,84,28,75,29.91,29.84,6,-644,10,0.00
2013-6-15,66.2,26.1,62.2,58.6,-36.7,-99.9,84,30,71,29.96,29.88,4,-596,7,0.00
2013-6-16,66.8,28.2,63.1,60.1,-31.8,-99.9,86,34,74,30.01,29.93,6,-567,11,0.00
2013-6-17,67.0,27.8,62.8,61.3,-32.1,-99.9,89,35,78,29.97,29.87,5,-575,11,0.00
2013-6-18,67.6,26.5,64.1,61.6,-35.3,-99.9,88,33,80,29.91,29.83,4,-596,7,0.00
2013-6-19,69.6,30.3,65.0,61.8,-27.7,-99.9,85,35,76,29.85,29.78,5,-547,13,0.00
2013-6-20,70.0,32.3,63.8,62.0,-23.5,-99.9,86,37,68,29.85,29.77,5,-523,9,0.00
2013-6-21,69.5,39.6,62.4,62.0,-4.6,-99.9,91,48,72,29.89,29.80,5,-406,8,0.00
2013-6-22,67.6,64.0,61.7,60.4,59.1,57.9,92,84,75,29.91,29.81,6,1,8,0.00
2013-6-23,67.1,63.2,61.1,59.7,57.9,56.5,89,83,73,29.86,29.79,5,1,10,0.00
2013-6-24,67.5,63.4,60.3,61.3,59.2,56.5,95,86,76,29.93,29.82,4,1,7,0.06
2013-6-25,70.3,64.7,59.6,63.8,61.1,57.3,93,88,79,29.98,29.88,7,2,11,0.00
2013-6-26,71.0,65.9,62.3,64.5,62.8,60.6,95,90,79,29.97,29.88,7,1,8,0.00
2013-6-27,72.6,67.0,63.0,66.2,63.7,61.7,96,89,79,30.01,29.95,3,0,6,0.00
2013-6-28,71.2,67.8,66.0,65.8,64.6,64.0,94,90,83,29.88,29.85,4,0,6,0.00
2013-6-29,75.7,68.0,63.9,68.2,64.9,63.0,98,90,72,29.86,29.71,4,1,9,0.00
2013-6-30,77.9,68.7,63.8,68.9,65.1,61.7,95,89,67,29.79,29.69,9,1,13,0.00
2013-7-1,79.8,68.4,64.3,70.0,65.3,62.8,96,90,71,29.87,29.78,4,0,8,0.00
2013-7-2,70.6,67.0,65.2,66.0,64.4,63.0,98,92,83,29.99,29.85,3,0,10,0.01
2013-7-3,70.3,66.2,63.4,66.6,64.0,61.9,96,93,87,29.91,29.79,6,1,14,0.00
2013-7-4,69.6,65.5,62.7,64.7,62.5,61.1,96,90,83,29.82,29.75,5,1,13,0.00
2013-7-5,70.4,66.4,64.1,64.0,62.3,60.9,90,87,80,29.84,29.76,4,1,7,0.00
2013-7-6,69.4,66.2,64.4,64.8,62.7,61.7,92,88,85,29.82,29.75,4,0,11,0.00
2013-7-7,71.2,66.9,63.8,65.8,63.4,61.7,93,89,81,29.84,29.75,7,2,11,0.00
2013-7-8,73.6,65.8,62.0,66.7,62.9,60.2,97,91,77,29.90,29.83,8,1,13,0.00
2013-7-9,72.5,67.2,62.4,67.0,63.7,60.1,96,89,78,30.00,29.87,5,0,10,0.01
2013-7-10,72.4,68.3,66.6,67.3,65.4,64.3,94,91,84,29.96,29.88,3,0,6,0.00
2013-7-11,70.9,67.6,66.2,66.8,65.0,63.8,94,91,87,29.95,29.87,2,0,5,0.00
2013-7-12,73.0,68.3,65.3,67.2,64.8,62.9,93,89,79,29.91,29.83,5,1,11,0.00
2013-7-13,70.6,67.2,65.0,64.9,63.4,62.3,92,88,80,29.93,29.84,8,2,14,0.00
2013-7-14,73.5,68.2,64.7,67.2,64.5,62.0,92,88,79,29.91,29.82,6,1,8,0.00
2013-7-15,73.7,68.7,64.7,67.3,64.0,58.1,93,86,59,29.85,29.78,10,2,16,0.00
2013-7-16,71.7,65.9,59.3,64.5,61.7,57.4,95,87,76,29.96,29.83,8,2,14,0.00
2013-7-17,75.6,66.4,55.7,65.5,61.2,54.4,97,84,59,29.99,29.93,10,2,15,0.01
2013-7-18,67.7,64.8,63.0,63.4,62.0,60.6,93,91,86,29.89,29.85,3,0,5,0.01
2013-7-19,69.7,65.9,63.0,64.3,62.3,60.9,95,88,82,29.89,29.82,3,1,8,0.00
2013-7-20,67.2,64.9,63.2,62.9,61.7,60.8,92,89,85,29.87,29.78,2,0,7,0.00
2013-7-21,67.4,65.4,64.1,64.0,62.4,61.7,93,90,86,29.91,29.76,2,0,5,0.00
2013-7-22,71.0,67.2,63.2,66.0,63.5,61.1,95,88,81,29.96,29.89,4,1,11,0.00
2013-7-23,70.6,66.5,64.0,64.5,63.0,61.9,93,89,80,30.01,29.90,9,2,13,0.00
2013-7-24,68.6,65.3,62.0,63.9,62.1,60.3,95,90,83,29.95,29.87,10,3,18,0.00
2013-7-25,69.2,64.9,62.4,63.5,61.7,60.3,95,90,81,30.00,29.91,6,1,15,0.00
2013-7-26,71.3,65.7,63.3,65.1,62.8,61.4,94,91,80,30.06,29.96,7,1,14,0.01
2013-7-27,67.6,64.2,62.2,64.0,62.0,60.6,96,92,87,29.99,29.87,4,1,7,0.00
2013-7-28,68.5,63.1,60.5,62.4,60.3,58.3,97,91,81,29.91,29.87,5,1,11,0.00
2013-7-29,67.6,63.5,60.7,60.2,58.9,58.0,91,85,76,30.02,29.90,4,1,10,0.00
2013-7-30,68.5,63.6,59.5,61.3,58.8,56.9,92,85,75,30.10,30.02,6,2,12,0.00
2013-7-31,68.1,62.8,57.3,61.0,58.5,55.2,94,86,76,30.09,29.98,7,2,12,0.00
2013-8-1,69.1,64.8,62.2,61.7,59.6,57.9,92,84,72,30.00,29.89,6,1,11,0.00
2013-8-2,69.5,65.0,61.5,61.2,59.8,58.5,91,84,75,29.95,29.90,4,0,7,0.00
2013-8-3,68.3,64.2,61.3,62.0,60.0,58.0,90,86,78,29.98,29.92,5,1,10,0.00
2013-8-4,68.5,64.4,60.5,61.8,60.1,58.5,93,86,77,29.99,29.91,6,1,9,0.00
2013-8-5,67.6,62.8,59.4,61.9,59.7,57.9,96,90,80,29.99,29.92,6,1,11,0.00
2013-8-6,68.2,63.8,61.1,61.2,59.5,57.8,93,86,77,30.02,29.94,7,1,9,0.00
2013-8-7,67.3,63.3,60.5,61.7,59.3,57.9,93,87,78,30.06,29.95,5,1,9,0.00
2013-8-8,67.9,62.0,55.3,62.2,58.7,53.6,96,89,80,29.99,29.89,7,1,11,0.01
2013-8-9,68.1,63.0,58.9,61.0,59.0,57.2,95,87,78,29.95,29.90,4,1,12,0.00
2013-8-10,67.1,63.1,59.8,60.2,58.3,56.4,92,85,76,30.02,29.94,3,1,10,0.00
2013-8-11,67.6,63.5,60.0,62.1,59.6,57.4,94,87,79,29.97,29.88,5,1,12,0.00
2013-8-12,67.4,63.6,61.2,61.7,60.2,58.8,94,89,82,29.96,29.89,4,0,11,0.00
2013-8-13,67.6,63.4,61.6,62.9,60.8,59.9,95,91,85,29.96,29.87,6,1,11,0.00
2013-8-14,66.6,63.0,61.1,63.0,60.7,59.5,96,92,87,29.91,29.83,4,0,9,0.00
2013-8-15,69.0,64.5,61.7,64.1,62.0,60.5,97,92,83,29.92,29.86,3,0,11,0.00
2013-8-16,71.2,66.1,60.9,65.9,63.2,59.2,96,91,83,29.94,29.88,5,1,13,0.00
2013-8-17,69.7,64.8,62.3,64.4,62.4,60.7,97,92,82,29.93,29.80,6,1,16,0.00
2013-8-18,68.7,65.2,62.2,64.3,62.0,60.8,95,90,81,29.89,29.81,2,0,11,0.00
2013-8-19,68.4,65.1,63.6,63.2,62.0,61.2,93,90,83,29.93,29.85,6,1,11,0.00
2013-8-20,70.6,65.5,62.6,64.5,62.2,60.5,94,89,81,29.91,29.81,7,2,14,0.00
2013-8-21,71.7,65.7,59.4,64.5,61.3,57.7,96,86,73,29.90,29.81,9,2,16,0.00
2013-8-22,77.8,67.9,59.9,63.7,60.8,56.9,94,79,53,29.90,29.77,9,2,20,0.00
2013-8-23,73.5,65.9,59.6,63.5,61.3,58.0,95,86,66,29.85,29.72,6,1,18,0.00
2013-8-24,67.2,62.2,59.8,62.7,60.2,58.3,98,93,84,29.87,29.75,6,1,14,0.01
2013-8-25,68.4,62.7,58.1,63.5,60.5,57.3,98,93,83,29.89,29.82,6,1,15,0.00
2013-8-26,79.8,68.5,62.7,65.5,61.5,52.6,92,80,43,29.90,29.78,5,0,10,0.00
2013-8-27,76.6,69.0,64.3,66.3,63.3,60.8,93,83,59,29.83,29.74,7,1,16,0.00
2013-8-28,78.8,69.5,63.2,65.4,62.5,58.1,95,80,55,29.87,29.75,7,1,14,0.00
2013-8-29,78.9,71.4,64.2,66.5,62.9,57.4,93,76,50,29.90,29.84,4,0,14,0.00
2013-8-30,86.7,79.0,69.1,71.2,67.2,60.6,86,68,55,29.95,29.86,3,0,10,0.00
2013-8-31,81.8,76.1,72.0,70.6,67.1,65.3,83,74,63,29.93,29.85,4,1,10,0.00
2013-9-1,80.1,72.8,66.5,71.3,67.7,64.9,96,84,73,29.90,29.82,7,1,9,0.00
2013-9-2,77.4,68.8,63.7,69.1,65.8,63.1,98,91,74,29.89,29.78,7,2,12,0.01
2013-9-3,81.2,72.7,66.6,68.8,66.7,64.8,95,82,63,29.88,29.79,8,1,14,0.00
2013-9-4,83.2,73.5,67.6,68.7,65.5,60.1,93,78,47,29.87,29.80,8,1,16,0.00
2013-9-5,81.9,72.3,67.2,68.1,64.7,61.5,89,78,55,29.87,29.79,8,1,10,0.00
2013-9-6,80.4,72.4,66.9,68.8,65.2,62.5,88,78,60,29.85,29.76,5,1,13,0.00
2013-9-7,77.6,70.8,66.0,68.4,65.1,62.7,91,83,67,29.84,29.77,5,1,8,0.00
2013-9-8,72.7,67.0,62.6,65.8,62.8,60.5,95,87,75,29.83,29.73,5,1,11,0.00
2013-9-9,70.1,64.9,61.0,64.5,61.4,59.0,96,89,81,29.80,29.73,6,1,12,0.00
2013-9-10,69.6,65.5,61.9,63.1,60.7,58.3,92,85,76,29.92,29.79,5,1,8,0.00
2013-9-11,69.4,64.8,61.2,62.0,60.1,58.5,92,85,76,29.98,29.90,6,1,12,0.00
2013-9-12,71.5,64.6,57.8,64.3,60.8,56.4,96,88,76,29.91,29.80,9,1,17,0.00
2013-9-13,71.0,63.9,57.2,64.9,60.8,55.5,95,90,79,29.82,29.65,3,1,9,0.02
2013-9-14,72.4,64.3,59.8,66.6,62.2,58.9,98,93,81,29.70,29.60,6,1,10,0.01
2013-9-15,74.3,66.5,62.2,67.3,63.7,61.0,98,91,67,29.75,29.68,7,1,13,0.01
2013-9-16,75.2,66.6,61.5,66.3,62.7,59.8,97,88,65,29.79,29.72,8,2,14,0.00
2013-9-17,69.2,64.6,62.0,63.0,61.5,60.3,95,90,78,29.81,29.72,3,0,6,0.00
2013-9-18,70.9,65.7,62.4,62.2,60.0,58.1,90,82,70,29.79,29.73,4,0,8,0.00
2013-9-19,70.8,65.1,57.4,63.6,60.6,55.1,93,86,76,29.81,29.74,3,0,12,0.00
2013-9-20,67.1,65.6,64.4,63.1,61.3,58.7,90,86,79,29.87,29.79,3,0,5,0.00
2013-9-21,69.9,66.2,61.7,61.9,60.0,58.2,90,81,71,29.89,29.79,6,1,12,0.00
2013-9-22,69.7,64.6,58.6,62.3,58.0,51.9,94,80,60,29.83,29.77,4,1,9,0.00
2013-9-23,76.6,66.3,55.3,62.6,56.3,49.8,87,72,39,29.88,29.78,5,1,10,0.00
2013-9-24,76.4,67.6,57.6,64.9,58.6,49.9,93,74,47,29.91,29.82,4,0,7,0.00
2013-9-25,70.2,65.5,60.0,63.0,60.2,56.4,92,83,73,29.84,29.69,9,2,13,0.00
2013-9-26,69.2,64.6,58.2,59.8,56.2,50.2,82,75,61,29.86,29.70,8,2,13,0.00
2013-9-27,74.0,63.7,50.5,61.2,48.6,35.8,84,61,27,29.97,29.85,6,1,13,0.00
2013-9-28,80.4,65.9,50.4,57.8,44.9,35.0,70,49,20,30.02,29.92,6,1,8,0.00
2013-9-29,74.7,64.6,51.8,62.4,51.3,40.5,87,63,34,30.03,29.94,5,1,11,0.00
2013-9-30,71.5,63.4,52.9,63.2,57.6,46.9,94,82,66,29.97,29.84,4,0,9,0.00
2013-10-1,70.6,63.3,54.3,63.3,58.8,51.4,94,86,74,29.92,29.86,4,1,8,0.01
2013-10-2,69.2,64.8,62.6,60.8,58.8,56.6,87,81,73,29.95,29.86,5,1,6,0.00
2013-10-3,67.6,64.3,61.5,61.8,59.3,56.7,88,84,79,29.91,29.81,3,0,8,0.00
2013-10-4,70.8,65.2,58.9,63.3,60.0,56.0,94,84,76,30.00,29.86,5,1,12,0.00
2013-10-5,86.3,71.7,56.3,57.9,37.7,13.9,95,34,7,30.08,29.99,5,1,7,0.01
2013-10-6,85.0,71.7,56.0,53.6,34.6,18.0,57,28,10,30.04,29.92,5,1,8,0.00
2013-10-7,73.3,64.3,55.7,64.6,51.5,34.4,89,65,41,29.95,29.88,6,1,10,0.00
2013-10-8,67.3,61.6,56.3,59.4,54.5,50.5,89,78,69,29.91,29.80,4,1,11,0.00
2013-10-9,63.4,59.1,54.3,54.5,52.0,48.2,92,77,67,29.81,29.71,11,2,18,0.26
2013-10-10,65.8,58.0,50.0,53.0,50.4,46.9,92,77,57,29.99,29.79,4,0,5,0.00
2013-10-11,66.5,58.7,48.6,58.3,53.2,46.1,92,82,69,30.02,29.91,8,1,14,0.00
2013-10-12,66.8,59.4,50.1,59.9,55.7,48.4,96,88,77,29.96,29.88,5,1,11,0.01
2013-10-13,65.8,60.7,54.2,57.3,55.5,51.6,93,83,72,30.00,29.90,3,0,8,0.00
2013-10-14,73.1,60.9,49.5,62.0,55.6,48.0,96,84,52,30.00,29.86,5,1,11,0.01
2013-10-15,76.3,64.3,51.6,60.2,51.8,43.8,94,67,33,29.94,29.85,3,0,7,0.00
2013-10-16,79.4,65.9,53.1,50.7,40.5,27.4,72,43,18,30.03,29.94,4,0,11,0.00
2013-10-17,71.6,62.7,49.9,58.9,45.3,35.6,72,54,28,30.01,29.90,4,0,7,0.00
2013-10-18,72.9,62.2,50.3,60.5,51.6,42.6,81,69,45,29.99,29.89,4,1,8,0.00
2013-10-19,67.1,59.4,50.3,61.2,54.5,45.5,92,84,61,30.00,29.92,3,0,9,0.00
2013-10-20,65.4,58.9,51.2,59.8,56.2,50.4,98,91,81,29.97,29.88,5,0,6,0.01
2013-10-21,65.6,59.2,53.5,59.2,56.3,52.1,97,90,78,29.97,29.89,7,1,11,0.00
2013-10-22,65.2,59.4,52.8,59.7,56.6,51.4,97,91,81,29.98,29.89,7,1,11,0.01
2013-10-23,64.9,61.3,59.3,57.3,56.1,55.1,90,83,74,29.95,29.89,5,1,8,0.00
2013-10-24,65.9,61.6,57.0,57.7,55.7,53.6,89,81,72,30.03,29.93,6,1,9,0.00
2013-10-25,65.9,60.8,56.0,58.7,56.4,53.4,93,86,77,30.10,29.98,8,1,13,0.00
2013-10-26,63.8,58.6,52.2,60.5,56.9,50.8,98,94,88,30.07,29.94,5,0,10,0.01
2013-10-27,65.6,59.9,54.7,60.2,57.5,54.1,99,92,81,29.97,29.81,2,0,4,0.01
2013-10-28,63.6,59.9,53.3,57.1,53.3,49.2,94,79,72,29.92,29.82,6,1,11,0.00
2013-10-29,62.9,56.5,48.1,53.3,50.2,45.6,92,80,65,29.99,29.90,4,0,9,0.00
2013-10-30,63.8,56.9,48.4,56.0,51.1,45.6,91,81,68,30.05,29.97,5,1,11,0.00
2013-10-31,68.9,58.5,46.9,54.3,48.1,42.9,90,70,40,30.07,29.96,3,0,7,0.00
2013-11-1,79.9,61.8,47.8,52.9,44.1,32.5,83,57,18,30.07,29.91,3,0,6,0.00
2013-11-2,72.0,61.1,50.5,61.2,50.8,38.4,93,70,39,29.97,29.86,3,0,3,0.00
2013-11-3,65.5,60.2,53.2,56.9,54.1,50.9,94,81,71,29.91,29.81,6,1,14,0.00
2013-11-4,64.0,59.0,51.3,54.5,51.6,48.2,89,77,63,29.92,29.77,4,0,8,0.00
2013-11-5,69.8,57.6,47.3,57.8,46.1,29.0,93,68,36,30.11,29.92,5,1,8,0.00
2013-11-6,73.6,59.5,45.3,54.6,32.5,15.5,67,39,11,30.17,30.06,5,1,11,0.00
2013-11-7,80.8,64.3,49.1,46.7,31.5,12.5,51,33,8,30.08,29.96,3,0,7,0.00
2013-11-8,70.2,59.4,46.5,59.6,47.8,34.5,94,67,34,30.02,29.91,1,0,4,0.00
2013-11-9,68.8,57.1,46.7,55.9,49.9,40.5,97,79,38,30.06,29.98,1,0,7,0.00
2013-11-10,76.6,59.6,49.6,58.0,48.5,28.1,90,70,18,30.11,30.01,5,0,9,0.00
2013-11-11,71.2,58.0,46.1,59.0,50.6,39.6,93,77,47,30.11,30.00,4,1,10,0.00
2013-11-12,74.0,61.3,51.4,59.7,53.8,47.0,94,77,52,30.14,30.02,3,0,5,0.00
2013-11-13,79.6,66.3,53.3,58.5,47.6,38.3,82,54,26,30.02,29.86,2,0,6,0.00
2013-11-14,81.6,66.3,55.4,59.2,46.6,30.8,95,54,16,29.90,29.75,2,0,5,0.00
2013-11-15,64.6,60.6,55.9,58.2,56.5,53.3,96,87,77,29.76,29.66,6,1,11,0.00
2013-11-16,63.9,59.1,55.5,55.3,51.6,49.6,93,77,62,29.93,29.74,5,1,9,0.00
2013-11-17,64.5,57.9,51.3,56.0,52.2,48.2,92,82,64,30.07,29.92,5,1,7,0.00
2013-11-18,65.0,57.7,48.7,56.8,53.0,46.6,94,85,70,30.14,30.03,6,1,11,0.00
2013-11-19,62.2,58.8,55.3,56.0,54.1,52.7,92,85,74,30.07,29.93,5,1,9,0.02
2013-11-20,64.8,59.9,54.8,57.9,55.5,52.2,96,86,74,29.96,29.87,5,0,6,0.12
2013-11-21,61.3,58.3,54.4,59.1,56.9,53.0,98,95,88,29.88,29.82,4,1,7,0.48
2013-11-22,58.4,54.2,49.6,53.7,48.6,42.2,97,82,63,29.93,29.81,3,0,8,0.01
2013-11-23,63.8,55.5,48.3,50.3,45.9,41.9,87,71,51,30.07,29.93,3,0,8,0.00
2013-11-24,62.4,54.0,44.6,54.2,48.0,41.3,90,81,69,30.17,30.06,7,1,12,0.00
2013-11-25,67.2,55.3,43.8,55.7,46.9,40.8,90,75,46,30.22,30.13,5,1,9,0.00
2013-11-26,70.4,57.9,45.2,55.7,46.3,36.2,88,67,34,30.17,30.01,5,0,7,0.00
2013-11-27,68.8,59.4,49.3,54.7,46.7,39.5,87,64,44,30.02,29.86,3,0,4,0.00
2013-11-28,64.4,55.3,46.2,56.4,48.5,40.3,86,78,64,30.04,29.87,4,0,6,0.00
2013-11-29,63.7,56.6,52.6,57.4,53.1,48.0,94,88,80,30.16,30.04,3,0,5,0.16
2013-11-30,69.5,58.4,49.9,57.4,51.9,47.9,94,80,54,30.15,30.05,5,0,9,0.02
2013-12-1,72.4,58.6,48.3,58.1,49.5,40.2,92,73,44,30.18,30.06,1,0,5,0.00
2013-12-2,70.5,57.8,47.4,53.8,44.2,36.7,81,62,40,30.10,29.90,1,0,3,0.00
2013-12-3,62.2,55.7,45.6,55.3,50.3,40.7,89,82,73,29.90,29.75,9,1,14,0.00
2013-12-4,58.7,53.6,47.9,48.3,41.7,38.2,79,65,47,29.95,29.78,10,1,15,0.00
2013-12-5,58.6,51.2,41.0,43.0,40.3,36.5,85,67,53,30.08,29.93,5,1,11,0.00
2013-12-6,57.7,51.2,44.3,44.5,40.1,38.0,79,66,53,30.16,30.08,5,1,7,0.00
2013-12-7,57.0,50.7,42.9,51.8,42.6,37.4,91,74,55,30.11,30.00,10,3,16,0.11
2013-12-8,55.3,47.4,39.9,41.6,39.0,33.4,89,73,55,30.18,30.08,3,0,3,0.00
2013-12-9,59.2,48.3,35.2,33.3,21.1,1.6,76,38,13,30.25,30.15,4,0,6,0.00
2013-12-10,61.7,49.1,36.4,39.4,29.4,9.6,68,48,22,30.23,30.06,4,0,8,0.00
2013-12-11,64.2,51.1,38.5,49.8,39.0,28.5,89,65,34,30.15,30.07,4,0,7,0.00
2013-12-12,60.7,52.8,43.7,54.1,45.2,29.7,93,77,35,30.20,30.12,3,0,7,0.00
2013-12-13,59.6,50.2,39.1,52.2,45.2,35.2,95,83,66,30.21,30.11,5,0,8,0.01
2013-12-14,69.3,54.3,41.6,53.0,40.6,25.2,96,66,24,30.27,30.16,4,0,10,0.01
2013-12-15,73.8,58.5,45.3,53.6,40.3,26.7,78,53,19,30.21,30.03,1,0,1,0.00
2013-12-16,78.1,61.5,49.9,53.6,41.4,35.2,66,49,22,30.10,30.01,6,0,6,0.00
2013-12-17,74.4,61.8,51.7,56.6,45.7,38.9,89,58,32,30.11,29.98,2,0,2,0.00
2013-12-18,66.1,58.9,54.9,57.0,52.8,45.2,93,81,60,29.99,29.84,3,0,9,0.00
2013-12-19,55.7,51.6,43.3,50.8,47.3,41.1,92,85,77,29.86,29.71,6,1,9,0.09
2013-12-20,58.9,49.8,39.6,51.3,45.5,37.9,96,86,72,29.93,29.75,4,0,8,0.00
2013-12-21,59.4,51.4,44.3,51.9,46.4,40.4,92,83,74,30.07,29.90,4,0,9,0.00
2013-12-22,60.8,51.5,41.5,53.4,47.2,39.9,95,86,73,30.24,30.06,4,0,8,0.01
2013-12-23,73.8,58.0,43.8,51.1,42.4,38.5,92,61,30,30.28,30.16,4,0,7,0.01
2013-12-24,67.6,56.2,46.0,56.0,46.0,38.0,89,69,41,30.17,30.06,5,0,6,0.00
2013-12-25,76.4,62.7,48.9,43.9,32.9,16.9,78,38,13,30.16,30.06,5,1,8,0.00
2013-12-26,76.5,59.8,48.2,47.1,29.0,12.3,61,35,9,30.13,30.02,6,1,11,0.00
2013-12-27,76.6,57.9,44.1,48.9,30.5,23.1,50,37,15,30.12,30.01,3,0,7,0.00
2013-12-28,65.5,55.2,45.8,56.3,42.7,31.5,94,66,28,30.03,29.91,5,1,10,0.00
2013-12-29,75.6,52.8,42.0,55.3,46.0,15.1,97,80,10,30.13,29.97,3,0,7,0.01
2013-12-30,69.9,53.5,41.9,39.8,29.8,17.8,63,44,14,30.23,30.12,5,1,7,0.00
2013-12-31,61.8,51.0,39.7,54.4,42.3,28.8,93,73,31,30.18,30.06,5,1,7,0.00
2014-1-1,68.4,52.0,39.8,55.6,47.1,37.4,93,84,43,30.12,30.01,5,1,7,0.01
2014-1-2,65.7,53.6,42.6,56.9,48.2,38.1,95,82,64,30.08,29.97,3,0,6,0.00